ONEWEB-0180, 48213

Orbit data source: Space-Track

ONEWEB-0180, 48213 is a payload satellite owned by One Web (NAA) (UK) in LEO that was launched on Sun, 25 Apr 2021 UTC via a SOYUZ-2-1B launch vehicle from the Vostochny Cosmodrome (VOSTO). Payload-class satellites include a variety of spacecraft equipped with specific instruments for various scientific and technological missions. These include communications satellites like Starlink; space stations such as the ISS; scientific satellites like the Hubble; Earth observation satellites from companies like Planet Labs, Umbra, and HawkEye 360; GPS; miniature CubeSats for education and research; and military/defense satellites.

Loading next visibility...
Identifier
48213, 2021-031D
Orbit
LEO
Country
Flag of UKUK
Related business
Manufacturer
One Web
Mission
Operational Commercial Communications
Bus & Motor
ARROW, Unknown motor
Mass
148 kg wet, ~140 kg dry
Launch date (UTC)
2021-04-25 (5 years ago)
Launch vehicle
SOYUZ-2-1B
Launch site
Vostochny Cosmodrome (VOSTO)
Object type
Payload
Rocket body
Debris
Shape & HBR
Trap Box + 2 Pan, 6.7 m
Radar Cross Section
3.464 m², Large (>1 m²)

Expand to show TLE details & history
Last TLE update: 1 day ago

TLE from 1 day ago
0 ONEWEB-0180
1 48213U 21031D   25305.48690376 -.00000108  00000-0 -32708-3 0  9997
2 48213  87.9023 335.0455 0002125  90.4295 269.7078 13.14503802218303
Epoch: 2025-11-01T11:41Z
TLE epoch observation values (Epoch: 2025-11-01T11:41:08.484Z)
Latitude
-0.00007°
Longitude
118.74386°
Altitude
1,208.689 km
Speed
7.25 km/s
True Right ascension
22h 20m 10s
True Declination
0° 00' 00"
Sunlit
Object was in daylight at epoch
Visualization orbit readout
Latitude
Unknown
Longitude
Unknown
Altitude
Unknown
Speed
Unknown
Apparent Right ascension
Unknown
Apparent Declination
Unknown
Sunlit
N/A
Visualization observer readout
Local Sidereal Time
09:10:30
Azimuth
Unknown
Elevation
Unknown
Doppler factor
Unknown
Orbital elements
Apogee altitude
1,204.511 km
Perigee altitude
1,201.289 km
Semi-major axis
7,581.037 km
Eccentricity
0.00021
Inclination
87.9023°
RAAN
335.0455°
Arg. of periapsis
90.4295°
True anomaly
269.68345°
Mean anomaly
269.7078°
Eccentric anomaly
269.69562°
Mean motion
3.28814 °/min
Orbital period
109.48 mins
BSTAR
-0.00032708
Loading maneuver chart data...
Computing Atmospheric mass density...
Loading historical data...
Loading historical data...
Loading historical data...
Loading historical data...
Loading historical data...
Loading historical data...
Loading historical data...

Documentation

Showing up to 5 results
|